GFSSGP_700_temp_336.txt.gz
Temp
14 14 14 14 14 15 14 13 12 11 11 10 10 10 10 9 9 8 9 9 8 8 8 9 9 9 8 9 9 9 9 9 9 9 9 9 9 8 8 8 8 8 8 8 8 8 7 7 7
14 14 13 14 16 15 13 13 12 12 11 11 11 11 11 11 10 10 10 9 9 9 9 9 9 8 9 9 9 9 9 9 9 9 9 9 8 8 8 8 8 8 7 7 8 7 7 7 7
14 14 13 14 15 15 13 13 12 11 10 10 12 11 11 10 10 10 10 10 10 9 9 9 9 9 9 9 9 9 9 9 9 9 9 9 9 8 8 8 8 8 8 8 8 7 7 7 7
14 14 14 15 14 13 13 11 11 10 10 11 11 11 11 11 10 10 10 10 10 10 9 9 9 9 9 9 9 9 9 9 9 9 9 9 9 9 9 8 8 8 8 8 7 7 7 7 7
14 14 15 14 13 13 12 12 11 11 10 10 10 11 11 11 11 10 10 10 10 9 9 9 9 9 9 9 9 9 9 9 9 9 9 9 9 9 9 9 8 8 8 8 8 7 7 7 7
14 15 15 14 13 12 12 11 12 11 12 12 12 12 11 11 10 10 10 10 10 10 10 9 9 9 9 9 9 9 9 9 9 9 9 9 9 9 10 9 9 9 9 8 8 8 7 7 7
15 15 15 14 13 13 12 12 12 12 12 12 12 12 11 11 10 10 10 10 10 10 10 10 10 9 9 9 9 9 9 9 9 9 9 9 9 9 10 9 9 8 8 8 8 8 7 7 7
15 16 15 15 14 13 12 13 11 12 12 12 12 12 12 11 11 11 10 10 10 10 10 10 10 10 10 9 9 9 9 9 9 9 9 9 9 9 9 9 8 8 9 8 8 8 7 8 7
15 16 15 14 15 13 12 12 12 12 12 11 12 12 12 12 11 11 11 10 10 10 10 10 10 10 10 10 9 9 9 9 9 9 9 9 9 9 9 9 9 8 8 9 8 8 8 8 7
16 16 14 13 13 13 12 12 12 11 12 12 12 11 11 12 11 11 10 10 10 10 10 10 10 10 10 9 9 9 9 9 9 9 9 9 9 9 9 9 8 9 9 9 8 8 8 8 8
15 15 14 14 14 13 13 12 12 12 12 11 12 12 11 11 11 11 10 10 10 10 10 10 10 10 10 10 10 9 9 9 9 9 9 9 9 9 9 9 9 8 9 8 9 8 8 8 8
15 15 14 15 15 14 13 13 12 12 12 12 12 12 11 11 11 11 11 11 11 10 10 10 10 10 10 10 10 10 10 9 9 9 9 9 9 9 9 9 9 9 9 9 9 9 9 8 8
15 15 15 15 15 14 14 14 13 12 12 12 13 12 11 11 11 11 11 11 11 10 10 10 10 10 10 10 10 10 10 9 9 9 9 9 9 9 9 9 10 10 9 9 9 9 9 8 8
16 15 15 15 15 14 13 14 13 14 13 13 12 12 11 11 11 11 11 11 11 11 10 10 10 10 10 10 10 10 10 10 9 9 9 9 10 10 9 9 9 10 9 9 9 9 8 9 8
16 15 15 14 15 15 15 15 13 14 14 13 12 11 11 11 11 11 11 11 10 10 11 11 11 10 10 10 10 10 9 9 9 9 9 9 10 10 9 9 9 9 10 10 9 8 8 8 8
16 16 16 16 16 15 15 14 14 14 14 14 13 11 11 11 11 11 11 11 10 10 10 11 10 10 10 10 10 10 10 9 9 9 9 9 9 10 10 10 10 9 10 10 9 8 8 8 8
17 18 17 17 16 15 15 15 15 14 13 13 13 12 12 11 11 11 10 10 10 10 11 11 10 10 10 10 10 10 10 10 9 10 10 9 9 10 10 10 10 10 10 9 9 9 8 8 9
18 18 17 17 16 16 16 15 15 15 13 13 13 13 13 11 12 11 11 10 10 10 10 10 10 10 10 10 10 10 10 10 10 10 9 9 10 10 10 10 10 10 9 9 9 9 9 8 9
17 18 18 17 17 16 16 16 15 15 14 12 12 13 12 12 11 11 11 11 10 10 10 10 10 10 10 10 10 10 10 10 10 10 9 9 10 10 10 10 9 10 10 9 9 9 9 9 8
17 18 18 17 17 17 17 17 16 16 16 15 14 14 13 12 11 12 12 12 11 10 10 10 10 10 10 10 10 10 10 10 10 10 9 9 10 10 10 10 10 10 10 10 9 9 9 9 9
18 18 18 17 17 17 17 18 17 17 17 16 15 13 13 13 12 11 13 12 12 11 10 10 10 10 10 10 10 10 10 10 9 9 10 10 10 10 10 10 10 10 10 10 10 9 9 9 9
18 18 17 17 17 19 18 20 18 17 17 17 15 14 14 14 13 12 12 12 12 12 11 10 10 10 10 10 10 10 10 10 10 9 10 10 10 10 10 10 9 10 10 10 10 9 9 9 9
18 17 17 17 18 18 19 19 19 18 16 17 17 16 15 15 14 14 13 12 12 11 11 10 10 11 10 10 10 10 10 10 10 10 10 10 10 10 10 10 10 10 10 10 9 9 9 9 9
17 17 17 17 18 20 20 19 21 19 18 17 16 17 16 16 15 14 13 13 13 13 12 11 11 11 11 10 10 10 10 10 10 10 10 10 10 10 10 10 10 10 10 9 9 9 9 9 9
15 17 19 19 20 21 19 19 20 19 18 18 18 18 17 16 16 15 15 14 14 14 13 12 12 12 11 10 10 10 10 10 10 10 10 10 10 10 10 10 10 10 9 9 9 9 9 9 9
16 18 20 19 21 21 18 19 20 19 19 19 18 18 17 17 16 16 16 15 14 14 13 13 12 12 12 11 10 10 10 10 10 10 10 10 10 9 10 10 10 10 9 9 8 8 8 9 9
17 17 18 20 19 20 21 19 19 19 19 19 18 18 17 17 17 16 16 15 14 14 14 13 12 12 11 11 11 10 10 10 10 10 10 10 10 10 10 10 10 10 10 9 9 9 9 9 9
16 17 18 18 20 19 21 19 20 19 19 18 18 17 17 17 17 16 16 15 15 14 14 13 12 12 11 11 10 11 11 10 10 11 10 10 10 10 10 10 10 10 10 10 9 9 9 9 9
16 17 17 19 19 20 21 20 20 19 19 17 18 18 18 17 17 16 16 15 15 14 14 13 12 12 12 11 11 12 12 11 11 11 11 11 11 11 11 11 10 10 10 10 10 10 10 10 9
17 18 18 19 19 19 19 19 19 18 18 18 18 18 18 18 18 17 16 16 15 14 14 13 13 13 13 12 11 9 11 12 11 12 12 12 12 11 11 11 11 11 10 10 10 10 10 9 9

GFSSGP_700_temp_339.txt.gz
Temp
14 14 15 15 14 16 15 15 14 13 12 12 11 10 10 10 11 8 8 9 9 9 9 9 9 9 9 9 9 9 9 9 9 8 8 9 9 8 8 8 8 8 8 7 7 7 7 7 7
14 14 15 15 16 15 15 15 14 13 11 11 11 11 10 9 11 9 9 9 9 9 9 9 9 9 9 9 9 9 9 10 9 8 8 9 8 8 8 8 8 8 8 8 7 7 7 7 7
15 15 15 17 17 16 15 15 13 13 13 12 11 11 9 8 8 7 9 10 9 7 8 9 9 9 9 9 9 9 9 9 9 8 8 8 9 8 8 8 8 8 8 8 7 6 7 7 7
15 15 16 17 16 15 15 14 13 13 12 12 11 11 8 8 8 8 9 7 8 7 9 9 9 9 9 8 8 9 9 9 9 8 8 8 8 8 8 8 8 8 8 7 7 7 7 7 7
16 15 17 16 16 15 14 14 14 14 13 13 11 9 11 10 8 7 7 7 9 7 9 9 9 9 9 9 9 9 9 9 9 8 8 8 8 8 8 8 8 8 8 8 8 7 7 7 7
15 17 17 16 15 15 14 14 14 13 12 12 11 10 11 11 10 7 8 8 7 7 10 10 10 9 9 9 9 9 9 9 9 9 9 9 8 8 8 8 8 9 8 8 8 7 7 7 7
17 18 17 17 15 14 14 14 14 13 13 12 11 10 10 10 11 10 7 8 7 7 10 10 10 10 10 9 9 9 9 9 9 9 9 9 9 8 8 9 8 9 8 8 8 8 7 7 7
17 18 18 17 16 14 14 14 14 14 12 12 11 10 9 9 9 10 10 10 10 10 10 10 10 10 9 10 10 9 10 9 9 9 9 9 9 9 9 9 9 9 9 9 8 8 8 7 7
16 18 17 17 15 14 14 14 13 12 12 12 12 11 10 11 11 9 9 7 7 8 9 10 9 10 10 10 10 10 9 10 9 9 9 9 9 9 9 9 8 8 9 9 9 8 8 8 7
18 17 16 16 16 15 14 14 13 13 12 12 12 11 10 11 10 9 9 10 10 10 7 7 7 9 10 8 9 10 9 9 9 9 9 9 9 9 8 9 8 9 9 8 8 8 8 8 8
18 16 16 15 15 15 15 14 14 14 14 12 12 10 11 11 9 9 9 8 9 11 10 8 9 10 10 10 10 9 9 9 9 9 9 9 9 9 8 9 9 9 9 8 9 8 9 9 8
17 16 16 15 14 15 15 15 14 14 14 13 11 11 11 10 9 10 9 9 8 10 8 9 10 10 10 10 10 9 9 9 9 9 9 9 9 9 9 9 9 9 9 9 9 9 9 8 8
17 16 16 15 15 15 14 15 14 14 13 12 11 11 11 10 10 10 10 9 9 10 10 10 10 10 10 10 10 9 9 9 10 9 9 9 9 9 9 10 9 10 9 9 8 8 8 8 8
17 17 16 16 15 15 15 15 15 13 13 12 11 11 10 11 11 10 10 9 11 11 10 10 11 10 10 10 10 10 9 9 9 9 9 9 9 9 9 9 8 8 8 8 9 9 8 8 8
17 17 17 16 16 15 15 14 15 13 13 12 11 11 11 11 11 10 10 10 11 11 11 10 11 11 10 10 10 9 10 9 9 10 9 9 9 10 9 9 7 10 10 10 9 9 8 8 8
18 18 18 17 16 16 15 16 15 13 13 12 12 11 11 11 11 10 10 10 11 10 11 11 11 11 11 10 10 9 9 9 8 9 9 9 9 9 9 9 9 9 7 9 9 9 8 8 8
19 19 19 18 17 17 16 16 15 14 13 13 12 12 11 11 11 10 10 9 10 10 11 11 11 9 11 10 10 10 9 10 8 8 9 9 9 9 10 9 9 10 7 6 7 7 8 8 8
21 20 19 19 18 17 18 17 15 14 14 13 13 12 12 11 11 10 10 10 10 11 11 11 11 11 11 11 10 10 7 8 7 8 9 9 10 10 10 10 10 10 6 8 9 9 8 8 8
20 20 20 19 18 18 18 18 16 15 14 14 14 13 12 12 11 11 10 10 10 11 11 11 11 11 11 11 10 10 7 7 7 8 9 9 10 10 10 9 10 10 9 10 10 10 10 9 8
19 20 20 19 18 18 19 19 17 15 15 15 14 13 13 12 12 11 11 11 10 10 11 11 11 11 11 11 11 9 8 8 9 9 10 10 10 10 10 10 10 10 9 10 9 10 7 9 9
20 20 21 20 19 19 19 20 19 16 15 15 15 14 14 13 13 12 11 11 10 10 11 11 11 11 11 10 10 10 10 10 10 9 10 10 10 10 10 10 10 10 10 9 9 9 9 7 7
20 20 20 19 19 21 20 16 16 18 16 15 15 15 15 14 13 13 13 12 11 10 10 10 10 10 10 10 10 10 10 8 8 8 8 9 10 10 10 10 9 10 10 9 9 9 9 9 7
20 20 20 20 19 20 21 21 17 18 17 16 16 15 15 14 14 14 13 13 12 11 10 11 11 10 10 10 10 10 10 9 10 10 9 10 10 10 10 10 9 9 9 9 9 9 9 9 8
19 19 19 19 20 21 22 22 16 15 19 18 17 16 16 15 15 14 14 14 13 12 11 10 12 11 11 11 10 10 10 10 9 10 10 9 10 10 10 10 10 10 9 9 9 9 9 9 9
19 19 20 21 22 22 22 22 18 16 19 19 19 18 17 16 15 15 14 14 13 12 12 12 13 12 11 11 11 10 10 10 10 10 10 10 9 9 10 10 10 10 9 9 9 8 9 9 9
19 19 20 21 23 23 22 22 21 19 19 19 19 19 17 17 16 16 15 14 13 13 14 14 13 13 12 12 11 11 11 10 10 11 11 8 8 10 10 10 10 10 9 9 9 8 9 9 9
19 19 20 21 22 23 23 21 21 21 20 19 19 19 18 17 17 16 15 15 14 14 14 14 13 13 12 12 12 12 12 11 11 11 11 10 10 10 10 10 10 10 10 9 9 9 9 9 9
19 20 20 21 21 22 23 22 22 20 20 20 19 18 18 17 17 17 16 15 14 13 13 13 13 13 13 13 13 13 13 12 12 12 11 11 11 11 11 11 11 10 10 10 10 10 10 10 10
18 19 20 21 21 22 23 22 22 21 20 20 19 18 18 18 17 17 16 15 15 13 12 14 13 14 14 13 13 12 11 12 12 12 12 12 12 11 11 11 11 11 10 10 10 10 10 10 10
19 19 20 20 21 21 21 22 21 20 19 19 19 18 17 18 18 17 16 15 15 13 13 14 14 14 13 12 13 11 9 11 12 12 12 12 12 11 11 11 11 11 11 10 10 10 10 10 10

GFSSGP_700_temp_342.txt.gz
Temp
15 14 14 14 14 15 13 14 13 11 11 11 11 9 10 10 9 9 9 9 9 9 9 9 9 9 9 9 9 9 9 9 9 9 8 8 8 8 8 8 8 7 7 7 7 7 7 7 7
15 16 14 13 15 14 13 14 13 12 12 11 11 10 11 10 10 10 10 9 10 10 10 9 9 9 9 9 9 9 9 9 9 9 8 8 8 8 8 8 8 8 7 7 7 7 7 7 7
16 16 15 14 16 16 15 15 13 12 12 12 11 10 11 10 10 11 10 10 11 10 9 9 9 9 9 9 9 9 9 9 9 9 8 8 8 8 8 8 8 8 7 7 7 7 7 7 7
16 14 15 17 16 16 15 14 14 12 12 12 10 9 9 10 11 10 10 11 11 10 10 10 9 9 9 9 9 9 9 9 9 8 8 8 8 8 8 7 8 8 8 7 7 7 7 7 7
15 15 17 17 16 16 15 15 14 14 13 11 11 9 9 9 10 10 11 11 10 10 10 10 10 10 9 9 9 9 9 9 8 8 8 8 8 8 8 8 8 8 8 7 7 7 7 7 7
15 16 18 17 16 16 15 16 15 14 13 11 12 11 9 8 8 9 8 8 10 10 10 10 10 10 10 10 10 10 9 9 9 9 9 9 9 8 8 8 8 8 8 8 8 7 7 7 7
15 15 18 17 16 16 16 16 15 14 13 11 11 12 9 9 8 8 9 8 8 10 10 10 10 10 10 10 10 10 10 10 9 9 9 9 9 9 9 8 9 9 8 8 8 7 7 7 7
17 18 18 17 16 15 15 15 15 14 13 12 11 13 12 11 8 8 8 8 8 11 11 10 10 10 10 10 10 10 10 10 10 9 9 9 9 9 8 8 9 9 9 8 8 8 7 7 7
17 19 18 17 16 16 15 15 14 13 13 13 12 12 12 11 9 9 10 9 10 10 11 10 10 10 10 10 10 10 10 10 10 9 10 9 9 9 9 9 8 9 9 9 9 8 8 8 7
18 18 17 17 16 16 15 14 14 14 14 13 12 10 11 10 9 8 8 9 11 11 10 11 10 11 11 10 10 10 10 10 10 10 10 9 8 9 8 9 9 9 9 9 9 8 8 8 8
18 17 17 17 17 16 15 15 15 14 14 13 12 10 12 9 9 9 8 9 10 10 9 8 9 9 8 10 10 9 10 9 10 10 9 9 8 8 9 9 9 9 9 10 9 9 8 8 8
18 17 17 16 16 16 16 16 15 15 15 13 12 11 10 9 9 9 9 9 11 10 9 9 10 10 10 10 11 10 9 10 9 9 10 9 9 9 9 9 9 9 9 10 10 10 9 9 8
18 18 17 16 16 16 16 16 15 15 14 13 12 11 10 10 10 10 10 9 9 10 9 11 10 10 10 10 10 11 10 9 9 10 9 10 10 9 9 9 9 9 9 9 9 10 9 8 8
18 18 17 17 17 16 16 16 15 14 13 12 12 11 11 11 11 11 11 10 9 9 9 10 11 10 10 10 10 11 10 9 8 9 9 10 10 10 9 10 9 10 10 10 10 9 8 8 8
18 18 17 17 17 16 16 16 15 14 13 12 12 11 11 11 11 11 11 10 10 10 10 11 11 11 11 11 10 11 10 10 9 9 9 9 9 9 9 10 10 9 9 9 9 9 8 8 9
19 18 16 18 17 16 15 16 15 14 13 13 12 12 12 12 12 11 11 10 9 9 10 11 9 11 11 11 11 11 9 9 9 9 10 10 9 9 9 10 10 10 9 8 8 8 9 8 9
17 14 19 18 18 17 16 17 15 14 14 13 13 12 12 12 12 11 11 10 10 9 11 11 9 11 11 11 10 10 9 10 9 10 10 11 9 9 9 10 10 10 9 8 7 7 9 9 8
14 15 20 19 18 18 18 17 15 15 15 14 13 13 12 12 12 11 10 10 10 9 11 11 10 10 11 11 11 11 10 9 9 10 10 10 10 10 9 10 10 10 11 8 9 10 9 9 9
17 18 20 20 19 19 19 18 16 15 15 14 14 13 13 12 12 11 11 11 10 10 11 11 11 11 11 11 11 11 11 8 8 9 10 9 10 10 10 10 10 10 9 10 10 10 9 8 9
20 20 18 20 19 19 19 19 17 16 16 15 15 14 13 13 12 12 11 11 10 11 11 11 11 11 11 11 11 11 9 10 10 9 10 10 10 10 10 11 11 10 9 10 9 10 11 10 9
21 21 20 19 20 20 20 19 18 12 16 16 15 15 14 13 13 12 11 11 11 10 12 11 11 11 11 11 11 10 10 10 10 9 9 9 10 10 11 10 10 10 10 10 9 10 10 9 9
21 21 21 21 20 21 20 20 16 16 16 16 16 16 15 14 13 13 12 12 11 11 11 11 11 11 11 11 11 11 10 10 9 8 9 11 10 10 10 11 10 10 10 10 10 10 9 9 7
21 21 21 21 21 21 21 21 17 18 17 17 16 16 16 15 14 14 14 13 12 11 11 12 11 11 11 11 11 11 11 10 9 9 10 10 10 10 10 10 10 10 10 10 9 9 9 9 8
20 20 21 21 21 21 22 22 16 15 17 15 16 16 16 16 15 14 14 14 13 12 11 12 13 12 12 11 11 11 11 11 10 11 11 11 11 9 11 11 10 10 10 9 9 9 9 9 9
20 20 21 21 22 22 23 20 16 17 18 18 17 17 17 16 15 15 15 14 14 13 12 13 14 12 12 12 11 11 11 11 11 11 11 10 12 11 11 11 11 10 10 9 9 9 9 9 9
20 20 21 20 22 23 21 16 17 16 19 19 19 18 17 17 16 16 15 15 14 14 13 12 14 13 13 12 12 12 11 11 11 11 11 11 11 10 10 9 11 11 10 10 9 9 9 9 9
20 20 21 21 22 23 21 19 19 19 19 20 20 19 18 17 17 16 15 15 14 14 14 14 14 14 13 13 13 13 12 12 11 11 11 11 11 9 10 11 10 11 11 10 10 10 10 10 10
19 21 21 21 21 21 21 20 20 19 19 20 20 19 18 18 17 17 16 15 14 14 15 15 15 14 14 13 12 12 12 11 11 11 11 11 11 11 11 11 11 11 11 10 10 10 11 11 10
19 20 20 21 22 22 22 22 21 20 21 21 19 19 19 18 18 18 17 16 15 15 15 14 15 14 14 13 12 12 11 11 11 11 11 11 11 12 12 12 11 11 11 11 10 10 10 10 10
20 20 20 21 21 22 22 22 21 20 20 20 20 19 18 19 18 18 17 16 16 15 15 15 15 14 13 12 12 13 11 10 11 11 11 12 12 12 12 12 12 11 11 11 11 10 11 10 10

GFSSGP_700_temp_345.txt.gz
Temp
15 15 14 14 13 12 11 12 12 11 11 10 10 10 10 10 10 10 10 9 10 10 10 10 10 9 10 9 9 9 9 9 9 9 9 9 8 8 8 8 8 8 8 8 7 7 7 7 7
14 15 15 14 13 12 11 12 12 11 11 10 11 11 10 10 10 11 10 10 10 10 10 10 10 10 10 10 10 9 9 9 9 9 9 9 8 9 8 7 8 8 7 7 7 7 7 8 7
15 14 14 15 15 14 13 12 12 11 11 11 12 11 10 10 10 11 11 11 11 10 10 10 10 10 10 10 10 10 9 9 9 9 9 8 8 8 8 7 7 8 8 7 7 7 7 8 7
14 14 14 15 15 15 14 13 12 12 11 12 12 12 11 10 11 11 11 11 11 11 11 10 10 10 10 10 10 10 10 9 9 9 9 9 8 8 8 8 7 7 8 7 7 7 7 7 8
13 14 16 16 14 15 13 13 13 12 12 12 13 11 11 10 11 11 11 11 12 11 11 10 11 10 10 10 10 10 9 10 9 9 9 9 8 8 8 8 7 8 8 8 8 7 7 7 7
15 15 16 16 16 15 14 13 13 12 12 12 14 12 10 9 10 11 11 11 12 11 11 11 11 11 11 10 10 10 10 10 9 9 9 9 8 9 8 8 8 8 8 8 8 7 7 7 7
15 15 16 16 16 16 15 14 14 13 12 12 13 13 10 10 10 11 11 12 10 10 11 11 11 11 11 11 10 10 10 10 10 9 9 9 9 9 8 8 8 8 8 8 7 7 7 7 7
14 15 16 15 15 15 15 15 14 14 12 12 12 13 12 9 9 9 11 11 10 10 10 11 11 11 10 10 10 10 10 10 10 9 10 10 9 9 9 8 9 8 8 8 8 8 7 8 7
14 16 16 15 15 15 15 14 14 13 13 11 12 12 12 8 9 8 9 11 10 10 10 10 11 11 11 10 10 10 10 10 9 10 10 9 10 10 9 9 9 9 9 8 8 8 8 8 8
17 17 16 16 15 15 15 14 13 13 12 11 11 12 12 10 10 11 11 11 11 10 11 10 10 11 11 11 10 10 10 9 9 10 9 10 9 9 10 9 9 9 8 8 8 8 8 8 9
17 17 17 16 16 15 15 14 14 14 13 13 14 13 12 11 11 9 10 10 10 11 11 11 11 11 11 11 10 10 10 9 9 10 10 10 10 10 9 10 9 9 9 8 9 9 8 8 9
17 17 16 16 16 16 15 15 15 14 13 13 13 13 12 11 10 11 12 11 12 11 11 12 12 12 11 11 10 10 10 9 9 10 9 9 10 10 10 10 10 9 9 9 9 9 9 8 8
17 17 16 16 16 16 16 15 15 14 14 13 13 13 12 10 10 10 10 11 10 10 11 11 11 11 10 11 11 11 11 9 9 9 9 9 10 10 10 9 9 8 8 8 9 9 9 9 9
17 17 16 16 16 16 16 15 16 14 13 13 12 12 11 10 10 10 10 10 11 10 12 10 11 10 10 10 11 11 10 9 9 9 10 10 10 10 10 9 9 9 9 9 9 9 9 9 9
15 17 16 17 16 16 16 15 15 14 13 12 12 11 10 10 11 11 10 10 11 11 12 10 10 10 10 10 10 11 11 10 9 9 10 10 10 9 9 9 8 9 9 8 9 9 9 8 8
16 15 15 16 17 16 16 15 15 15 14 13 11 11 11 11 11 11 11 10 10 10 12 12 11 11 11 11 11 10 9 9 10 9 9 10 9 10 9 9 9 9 8 9 8 9 8 9 9
15 15 14 15 17 17 16 15 15 15 15 13 12 11 11 11 11 11 11 11 10 11 11 10 12 11 11 11 11 11 9 9 9 9 9 9 9 10 8 9 10 9 8 9 8 9 8 9 9
18 15 16 15 16 17 16 16 16 15 16 15 13 12 12 12 11 11 11 10 10 10 10 10 12 11 11 11 11 11 10 10 9 9 10 9 9 9 10 10 11 9 8 8 8 9 8 8 9
18 18 16 16 17 17 16 15 16 15 14 14 13 12 12 12 12 11 11 10 10 10 10 10 11 12 11 11 11 10 10 10 10 9 9 9 9 10 10 10 10 9 8 9 9 9 9 8 9
18 18 17 17 19 19 18 16 15 15 15 15 14 14 13 12 12 11 11 10 10 11 10 11 11 11 11 11 11 11 11 9 10 10 10 10 10 10 10 10 9 9 9 9 9 8 9 9 9
19 18 18 20 20 19 18 16 14 15 15 15 15 14 14 13 12 12 12 11 11 12 11 11 11 11 11 11 11 11 11 11 9 10 9 10 9 9 9 10 10 10 9 10 10 9 9 9 9
19 18 16 17 20 20 19 15 15 16 17 15 15 15 15 14 13 12 12 12 12 12 12 11 11 11 11 11 11 11 11 11 10 10 9 10 10 10 10 10 10 10 10 9 9 9 9 9 9
20 18 18 19 21 21 21 18 17 16 17 16 16 16 15 15 14 13 13 13 13 13 12 12 11 11 11 11 11 11 11 10 9 11 9 10 11 10 10 10 10 10 10 10 9 9 9 9 9
20 20 20 20 21 20 21 18 16 17 16 17 17 16 16 15 15 15 13 13 13 13 13 13 12 12 11 11 11 11 11 10 10 11 10 10 10 10 10 11 11 10 10 9 9 9 9 9 9
20 20 20 17 17 16 20 20 19 18 19 20 18 17 16 15 16 15 14 14 14 14 14 14 13 12 12 12 12 11 11 11 10 10 9 9 11 10 10 11 10 10 10 9 9 9 9 9 9
19 20 19 17 15 18 20 18 19 19 18 18 19 18 16 16 16 16 15 14 14 14 14 14 14 13 13 13 13 13 12 11 10 10 9 9 11 11 10 11 11 10 10 10 10 9 9 9 9
19 19 20 20 21 20 19 17 18 19 19 19 17 17 16 16 16 16 15 14 14 14 14 15 14 14 13 13 12 12 12 11 10 10 10 10 11 11 10 11 11 11 10 10 10 10 10 10 10
19 20 19 20 17 16 20 18 19 19 19 18 18 17 17 16 17 16 16 15 15 14 14 15 14 14 13 13 12 12 11 11 10 10 10 10 10 11 11 10 11 11 11 10 11 11 11 11 11
19 19 19 20 20 16 14 19 21 20 19 18 15 18 18 17 17 16 16 16 16 15 15 14 14 14 13 13 12 12 11 10 10 10 10 10 10 11 11 11 11 11 11 11 11 11 11 11 11
19 19 20 20 20 21 21 20 20 20 19 19 19 18 18 17 15 15 16 16 16 16 15 15 15 14 14 13 13 12 12 11 11 11 11 10 10 11 11 11 11 11 12 12 11 12 11 11 10